Time,TemperatureF,DewpointF,PressureIn,WindDirection,WindDirectionDegrees,WindSpeedMPH,WindSpeedGustMPH,Humidity,HourlyPrecipIn,Conditions,Clouds,dailyrainin,SoftwareType,DateUTC
2013-04-24 00:00:00,35.5,31.1,30.18,NNW,330,1.0,15.0,84,0.00,,---,0.63,VWS V14.01,2013-04-24 05:00:00,
2013-04-24 00:01:00,33.5,30.0,30.19,NW,323,4.0,4.0,87,0.01,,---,0.00,VWS V14.01,2013-04-24 05:01:00,
2013-04-24 00:06:00,33.5,30.0,30.19,NNE,12,4.0,6.0,87,0.01,,---,0.00,VWS V14.01,2013-04-24 05:06:00,
2013-04-24 00:11:00,33.5,30.3,30.19,NNW,336,3.0,8.0,88,0.01,,---,0.00,VWS V14.01,2013-04-24 05:11:00,
2013-04-24 00:16:00,33.5,30.3,30.19,North,5,4.0,8.0,88,0.02,,---,0.01,VWS V14.01,2013-04-24 05:16:00,
2013-04-24 00:21:00,33.5,30.3,30.19,NNW,338,2.0,8.0,88,0.02,,---,0.01,VWS V14.01,2013-04-24 05:21:00,
2013-04-24 00:26:00,33.5,30.3,30.19,NW,320,0.0,8.0,88,0.02,,---,0.01,VWS V14.01,2013-04-24 05:26:00,
2013-04-24 00:30:00,33.8,30.1,30.18,North,355,2.0,11.0,86,0.00,,---,0.63,VWS V14.01,2013-04-24 05:30:00,
2013-04-24 00:31:00,33.5,30.3,30.20,NNW,331,0.0,4.0,88,0.02,,---,0.01,VWS V14.01,2013-04-24 05:31:00,
2013-04-24 00:36:00,33.5,30.3,30.20,NNW,346,3.0,7.0,88,0.02,,---,0.01,VWS V14.01,2013-04-24 05:36:00,
2013-04-24 00:41:00,33.5,30.3,30.20,NNW,335,0.0,7.0,88,0.02,,---,0.01,VWS V14.01,2013-04-24 05:41:00,
2013-04-24 00:46:00,33.7,30.5,30.20,North,5,2.0,7.0,88,0.02,,---,0.01,VWS V14.01,2013-04-24 05:46:00,
2013-04-24 00:51:00,33.7,30.8,30.20,North,355,0.0,7.0,89,0.02,,---,0.01,VWS V14.01,2013-04-24 05:51:00,
2013-04-24 00:56:00,33.7,30.8,30.20,North,355,0.0,7.0,89,0.02,,---,0.01,VWS V14.01,2013-04-24 05:56:00,
2013-04-24 01:00:00,33.5,30.0,30.19,NNW,339,1.0,13.0,87,0.01,,---,0.00,VWS V14.01,2013-04-24 06:00:00,
2013-04-24 01:01:00,33.7,30.8,30.20,North,360,1.0,3.0,89,0.01,,---,0.01,VWS V14.01,2013-04-24 06:01:00,
2013-04-24 01:06:00,33.7,30.8,30.20,North,355,0.0,3.0,89,0.01,,---,0.01,VWS V14.01,2013-04-24 06:06:00,
2013-04-24 01:11:00,33.7,30.8,30.20,NNW,346,0.0,3.0,89,0.02,,---,0.02,VWS V14.01,2013-04-24 06:11:00,
2013-04-24 01:16:00,33.7,30.8,30.20,NNW,343,0.0,3.0,89,0.02,,---,0.02,VWS V14.01,2013-04-24 06:16:00,
2013-04-24 01:21:00,33.8,30.9,30.20,NNW,342,0.0,3.0,89,0.02,,---,0.02,VWS V14.01,2013-04-24 06:21:00,
2013-04-24 01:26:00,33.8,30.9,30.20,North,355,2.0,4.0,89,0.02,,---,0.02,VWS V14.01,2013-04-24 06:26:00,
2013-04-24 01:30:00,33.5,30.3,30.20,NW,325,2.0,8.0,88,0.02,,---,0.01,VWS V14.01,2013-04-24 06:30:00,
2013-04-24 01:31:00,33.8,30.9,30.19,NNW,335,1.0,2.0,89,0.01,,---,0.02,VWS V14.01,2013-04-24 06:31:00,
2013-04-24 01:36:00,33.8,31.2,30.19,West,278,2.0,4.0,90,0.01,,---,0.02,VWS V14.01,2013-04-24 06:36:00,
2013-04-24 01:41:00,33.8,31.2,30.19,NNW,336,0.0,4.0,90,0.01,,---,0.02,VWS V14.01,2013-04-24 06:41:00,
2013-04-24 01:46:00,33.8,31.2,30.18,NNW,336,0.0,4.0,90,0.01,,---,0.02,VWS V14.01,2013-04-24 06:46:00,
2013-04-24 01:51:00,34.0,31.4,30.18,NNW,334,0.0,4.0,90,0.01,,---,0.02,VWS V14.01,2013-04-24 06:51:00,
2013-04-24 01:56:00,34.0,31.4,30.18,NW,308,1.0,4.0,90,0.01,,---,0.02,VWS V14.01,2013-04-24 06:56:00,
2013-04-24 02:00:00,33.7,30.8,30.20,North,360,0.0,7.0,89,0.02,,---,0.01,VWS V14.01,2013-04-24 07:00:00,
2013-04-24 02:01:00,34.0,31.4,30.18,NNW,336,0.0,2.0,90,0.01,,---,0.02,VWS V14.01,2013-04-24 07:01:00,
2013-04-24 02:06:00,34.0,31.4,30.18,WNW,296,0.0,3.0,90,0.01,,---,0.02,VWS V14.01,2013-04-24 07:06:00,
2013-04-24 02:11:00,34.0,31.4,30.18,SW,223,0.0,3.0,90,0.01,,---,0.02,VWS V14.01,2013-04-24 07:11:00,
2013-04-24 02:16:00,34.0,31.4,30.18,SW,229,2.0,4.0,90,0.01,,---,0.02,VWS V14.01,2013-04-24 07:16:00,
2013-04-24 02:21:00,34.0,31.4,30.18,NNW,341,3.0,5.0,90,0.01,,---,0.02,VWS V14.01,2013-04-24 07:21:00,
2013-04-24 02:26:00,34.0,31.4,30.18,NNW,336,0.0,5.0,90,0.01,,---,0.02,VWS V14.01,2013-04-24 07:26:00,
2013-04-24 02:30:00,33.8,30.9,30.19,NNW,335,2.0,7.0,89,0.02,,---,0.02,VWS V14.01,2013-04-24 07:30:00,
2013-04-24 02:31:00,34.0,31.4,30.18,North,351,3.0,3.0,90,0.00,,---,0.02,VWS V14.01,2013-04-24 07:31:00,
2013-04-24 02:36:00,34.0,31.4,30.18,NW,320,0.0,6.0,90,0.00,,---,0.02,VWS V14.01,2013-04-24 07:36:00,
2013-04-24 02:41:00,34.0,31.4,30.18,NNW,339,1.0,6.0,90,0.00,,---,0.02,VWS V14.01,2013-04-24 07:41:00,
2013-04-24 02:46:00,34.0,31.4,30.18,West,281,2.0,6.0,90,0.00,,---,0.02,VWS V14.01,2013-04-24 07:46:00,
2013-04-24 02:51:00,33.8,31.2,30.18,NNW,330,1.0,6.0,90,0.00,,---,0.02,VWS V14.01,2013-04-24 07:51:00,
2013-04-24 02:56:00,33.8,31.2,30.18,NNW,338,2.0,6.0,90,0.00,,---,0.02,VWS V14.01,2013-04-24 07:56:00,
2013-04-24 03:00:00,34.0,31.4,30.18,NNW,336,1.0,4.0,90,0.01,,---,0.02,VWS V14.01,2013-04-24 08:00:00,
2013-04-24 03:01:00,33.8,30.9,30.18,NNW,329,3.0,3.0,89,0.00,,---,0.02,VWS V14.01,2013-04-24 08:01:00,
2013-04-24 03:06:00,33.7,30.8,30.18,WNW,302,0.0,5.0,89,0.00,,---,0.02,VWS V14.01,2013-04-24 08:06:00,
2013-04-24 03:11:00,33.7,30.8,30.18,NW,325,2.0,5.0,89,0.00,,---,0.02,VWS V14.01,2013-04-24 08:11:00,
2013-04-24 03:16:00,33.5,30.6,30.18,NNW,336,2.0,5.0,89,0.00,,---,0.02,VWS V14.01,2013-04-24 08:16:00,
2013-04-24 03:21:00,33.5,30.6,30.18,NW,316,2.0,6.0,89,0.00,,---,0.02,VWS V14.01,2013-04-24 08:21:00,
2013-04-24 03:26:00,33.5,30.6,30.18,NNW,332,2.0,6.0,89,0.00,,---,0.02,VWS V14.01,2013-04-24 08:26:00,
2013-04-24 03:30:00,34.0,31.4,30.18,NNW,345,2.0,5.0,90,0.01,,---,0.02,VWS V14.01,2013-04-24 08:30:00,
2013-04-24 03:31:00,33.4,30.5,30.18,NNW,336,2.0,5.0,89,0.00,,---,0.02,VWS V14.01,2013-04-24 08:31:00,
2013-04-24 03:36:00,33.4,30.5,30.18,North,5,2.0,6.0,89,0.00,,---,0.02,VWS V14.01,2013-04-24 08:36:00,
2013-04-24 03:41:00,33.2,30.3,30.18,NW,326,3.0,6.0,89,0.00,,---,0.02,VWS V14.01,2013-04-24 08:41:00,
2013-04-24 03:46:00,33.2,30.3,30.18,WNW,290,0.0,6.0,89,0.00,,---,0.02,VWS V14.01,2013-04-24 08:46:00,
2013-04-24 03:51:00,33.2,30.0,30.18,NNW,329,2.0,6.0,88,0.00,,---,0.02,VWS V14.01,2013-04-24 08:51:00,
2013-04-24 03:56:00,33.1,29.9,30.18,NW,305,0.0,6.0,88,0.00,,---,0.02,VWS V14.01,2013-04-24 08:56:00,
2013-04-24 04:00:00,33.8,31.2,30.18,WNW,286,3.0,6.0,90,0.00,,---,0.02,VWS V14.01,2013-04-24 09:00:00,
2013-04-24 04:01:00,33.1,29.9,30.19,NNW,344,2.0,2.0,88,0.00,,---,0.02,VWS V14.01,2013-04-24 09:01:00,
2013-04-24 04:06:00,32.9,29.7,30.19,NNW,338,1.0,5.0,88,0.00,,---,0.02,VWS V14.01,2013-04-24 09:06:00,
2013-04-24 04:11:00,32.8,29.6,30.19,NNW,345,3.0,5.0,88,0.00,,---,0.02,VWS V14.01,2013-04-24 09:11:00,
2013-04-24 04:16:00,32.7,29.5,30.20,NNW,333,0.0,5.0,88,0.00,,---,0.02,VWS V14.01,2013-04-24 09:16:00,
2013-04-24 04:21:00,32.5,29.4,30.20,NNW,331,1.0,5.0,88,0.00,,---,0.02,VWS V14.01,2013-04-24 09:21:00,
2013-04-24 04:26:00,32.4,29.2,30.20,NNW,336,1.0,5.0,88,0.00,,---,0.02,VWS V14.01,2013-04-24 09:26:00,
2013-04-24 04:30:00,33.4,30.5,30.18,NW,310,5.0,6.0,89,0.00,,---,0.02,VWS V14.01,2013-04-24 09:30:00,
2013-04-24 04:31:00,32.2,29.0,30.20,NNW,337,1.0,2.0,88,0.00,,---,0.02,VWS V14.01,2013-04-24 09:31:00,
2013-04-24 04:36:00,32.1,29.0,30.20,NNW,337,0.0,2.0,88,0.00,,---,0.02,VWS V14.01,2013-04-24 09:36:00,
2013-04-24 04:41:00,31.9,28.5,30.20,NW,325,0.0,2.0,87,0.00,,---,0.02,VWS V14.01,2013-04-24 09:41:00,
2013-04-24 04:46:00,31.8,28.4,30.21,NNW,343,2.0,4.0,87,0.00,,---,0.02,VWS V14.01,2013-04-24 09:46:00,
2013-04-24 04:51:00,31.6,28.2,30.21,NW,323,1.0,4.0,87,0.00,,---,0.02,VWS V14.01,2013-04-24 09:51:00,
2013-04-24 04:56:00,31.5,28.1,30.21,West,268,1.0,4.0,87,0.00,,---,0.02,VWS V14.01,2013-04-24 09:56:00,
2013-04-24 05:00:00,33.1,29.9,30.19,NNW,344,0.0,6.0,88,0.00,,---,0.02,VWS V14.01,2013-04-24 10:00:00,
2013-04-24 05:01:00,31.3,27.9,30.22,West,275,0.0,0.0,87,0.00,,---,0.02,VWS V14.01,2013-04-24 10:01:00,
2013-04-24 05:06:00,31.2,27.8,30.22,West,279,1.0,2.0,87,0.00,,---,0.02,VWS V14.01,2013-04-24 10:06:00,
2013-04-24 05:11:00,31.0,27.6,30.22,NNW,331,2.0,5.0,87,0.00,,---,0.02,VWS V14.01,2013-04-24 10:11:00,
2013-04-24 05:16:00,30.9,27.5,30.22,NNE,17,1.0,5.0,87,0.00,,---,0.02,VWS V14.01,2013-04-24 10:16:00,
2013-04-24 05:20:00,30.7,27.3,30.22,WSW,252,2.0,5.0,87,0.00,,---,0.02,VWS V14.01,2013-04-24 10:20:00,
2013-04-24 05:25:00,30.6,27.2,30.22,WNW,292,2.0,5.0,87,0.00,,---,0.02,VWS V14.01,2013-04-24 10:25:00,
2013-04-24 05:30:00,30.6,27.2,30.22,NNW,346,0.0,1.0,87,0.00,,---,0.02,VWS V14.01,2013-04-24 10:30:00,
2013-04-24 05:35:00,30.6,27.2,30.22,NNW,346,0.0,3.0,87,0.00,,---,0.02,VWS V14.01,2013-04-24 10:35:00,
2013-04-24 05:40:00,30.4,27.0,30.22,North,5,0.0,3.0,87,0.00,,---,0.02,VWS V14.01,2013-04-24 10:40:00,
2013-04-24 05:45:00,30.3,26.9,30.24,North,360,1.0,3.0,87,0.00,,---,0.02,VWS V14.01,2013-04-24 10:45:00,
2013-04-24 05:50:00,30.1,26.7,30.24,NNW,333,0.0,3.0,87,0.00,,---,0.02,VWS V14.01,2013-04-24 10:50:00,
2013-04-24 05:55:00,30.0,26.6,30.24,NW,318,0.0,3.0,87,0.00,,---,0.02,VWS V14.01,2013-04-24 10:55:00,
2013-04-24 06:00:00,29.8,26.4,30.24,NW,323,2.0,2.0,87,0.00,,---,0.02,VWS V14.01,2013-04-24 11:00:00,
2013-04-24 06:05:00,29.7,26.0,30.24,NW,323,0.0,2.0,86,0.00,,---,0.02,VWS V14.01,2013-04-24 11:05:00,
2013-04-24 06:10:00,29.5,25.8,30.24,NW,326,0.0,2.0,86,0.00,,---,0.02,VWS V14.01,2013-04-24 11:10:00,
2013-04-24 06:15:00,29.5,25.8,30.24,NW,325,3.0,3.0,86,0.00,,---,0.02,VWS V14.01,2013-04-24 11:15:00,
2013-04-24 06:20:00,29.4,25.7,30.24,NW,326,1.0,3.0,86,0.00,,---,0.02,VWS V14.01,2013-04-24 11:20:00,
2013-04-24 06:25:00,29.4,25.7,30.24,NNW,336,0.0,3.0,86,0.00,,---,0.02,VWS V14.01,2013-04-24 11:25:00,
2013-04-24 06:30:00,29.4,25.7,30.24,NNW,336,1.0,3.0,86,0.00,,---,0.02,VWS V14.01,2013-04-24 11:30:00,
2013-04-24 06:35:00,29.3,25.6,30.24,NNW,336,0.0,3.0,86,0.00,,---,0.02,VWS V14.01,2013-04-24 11:35:00,
2013-04-24 06:40:00,29.1,25.4,30.24,NNW,336,0.0,3.0,86,0.00,,---,0.02,VWS V14.01,2013-04-24 11:40:00,
2013-04-24 06:45:00,29.0,25.4,30.24,NNW,336,0.0,3.0,86,0.00,,---,0.02,VWS V14.01,2013-04-24 11:45:00,
2013-04-24 06:50:00,28.8,25.1,30.24,NNW,336,0.0,3.0,86,0.00,,---,0.02,VWS V14.01,2013-04-24 11:50:00,
2013-04-24 06:55:00,28.8,25.1,30.24,NNW,336,0.0,3.0,86,0.00,,---,0.02,VWS V14.01,2013-04-24 11:55:00,
2013-04-24 07:00:00,29.0,25.4,30.25,NNW,336,0.0,1.0,86,0.00,,---,0.02,VWS V14.01,2013-04-24 12:00:00,
2013-04-24 07:05:00,29.1,25.7,30.25,NNW,336,0.0,1.0,87,0.00,,---,0.02,VWS V14.01,2013-04-24 12:05:00,
2013-04-24 07:10:00,29.4,26.0,30.25,NNW,336,0.0,1.0,87,0.00,,---,0.02,VWS V14.01,2013-04-24 12:10:00,
2013-04-24 07:15:00,29.8,26.4,30.25,NNW,336,0.0,2.0,87,0.00,,---,0.02,VWS V14.01,2013-04-24 12:15:00,
2013-04-24 07:20:00,30.1,26.7,30.25,NNW,336,1.0,2.0,87,0.00,,---,0.02,VWS V14.01,2013-04-24 12:20:00,
2013-04-24 07:25:00,30.4,26.7,30.25,NW,321,0.0,2.0,86,0.00,,---,0.02,VWS V14.01,2013-04-24 12:25:00,
2013-04-24 07:30:00,30.4,26.7,30.27,WSW,238,1.0,2.0,86,0.00,,---,0.02,VWS V14.01,2013-04-24 12:30:00,
2013-04-24 07:35:00,30.6,26.9,30.27,WSW,241,0.0,2.0,86,0.00,,---,0.02,VWS V14.01,2013-04-24 12:35:00,
2013-04-24 07:40:00,30.7,27.0,30.27,WSW,246,0.0,3.0,86,0.00,,---,0.02,VWS V14.01,2013-04-24 12:40:00,
2013-04-24 07:45:00,31.0,27.3,30.28,NNW,330,0.0,3.0,86,0.00,,---,0.02,VWS V14.01,2013-04-24 12:45:00,
2013-04-24 07:50:00,31.3,27.6,30.28,NNW,337,0.0,3.0,86,0.00,,---,0.02,VWS V14.01,2013-04-24 12:50:00,
2013-04-24 07:55:00,31.6,27.9,30.28,North,360,0.0,3.0,86,0.00,,---,0.02,VWS V14.01,2013-04-24 12:55:00,
2013-04-24 08:00:00,31.8,27.8,30.29,NNW,329,1.0,2.0,85,0.00,,---,0.02,VWS V14.01,2013-04-24 13:00:00,
2013-04-24 08:05:00,31.9,27.9,30.29,NW,309,3.0,4.0,85,0.00,,---,0.02,VWS V14.01,2013-04-24 13:05:00,
2013-04-24 08:10:00,32.1,28.1,30.29,North,5,2.0,4.0,85,0.00,,---,0.02,VWS V14.01,2013-04-24 13:10:00,
2013-04-24 08:15:00,32.4,28.4,30.29,West,260,2.0,5.0,85,0.00,,---,0.02,VWS V14.01,2013-04-24 13:15:00,
2013-04-24 08:20:00,32.5,28.5,30.29,NW,319,4.0,6.0,85,0.00,,---,0.02,VWS V14.01,2013-04-24 13:20:00,
2013-04-24 08:25:00,32.8,28.8,30.29,NNW,340,2.0,8.0,85,0.00,,---,0.02,VWS V14.01,2013-04-24 13:25:00,
2013-04-24 08:30:00,32.8,28.5,30.28,North,360,0.0,3.0,84,0.00,,---,0.02,VWS V14.01,2013-04-24 13:30:00,
2013-04-24 08:35:00,33.1,28.8,30.28,NNW,334,0.0,6.0,84,0.00,,---,0.02,VWS V14.01,2013-04-24 13:35:00,
2013-04-24 08:40:00,33.4,29.1,30.28,North,355,1.0,6.0,84,0.00,,---,0.02,VWS V14.01,2013-04-24 13:40:00,
2013-04-24 08:45:00,33.8,29.2,30.29,NNW,348,3.0,6.0,83,0.00,,---,0.02,VWS V14.01,2013-04-24 13:45:00,
2013-04-24 08:50:00,34.0,29.4,30.29,North,349,4.0,6.0,83,0.00,,---,0.02,VWS V14.01,2013-04-24 13:50:00,
2013-04-24 08:55:00,34.0,29.1,30.29,NNW,343,2.0,9.0,82,0.00,,---,0.02,VWS V14.01,2013-04-24 13:55:00,
2013-04-24 09:00:00,34.3,29.7,30.29,NNW,340,6.0,7.0,83,0.00,,---,0.02,VWS V14.01,2013-04-24 14:00:00,
2013-04-24 09:05:00,34.3,29.4,30.29,NNW,335,5.0,9.0,82,0.00,,---,0.02,VWS V14.01,2013-04-24 14:05:00,
2013-04-24 09:10:00,34.6,29.7,30.29,NNE,27,4.0,9.0,82,0.00,,---,0.02,VWS V14.01,2013-04-24 14:10:00,
2013-04-24 09:15:00,34.6,29.7,30.29,NNW,335,6.0,9.0,82,0.00,,---,0.02,VWS V14.01,2013-04-24 14:15:00,
2013-04-24 09:20:00,34.7,29.5,30.29,North,355,0.0,10.0,81,0.00,,---,0.02,VWS V14.01,2013-04-24 14:20:00,
2013-04-24 09:25:00,35.0,29.8,30.29,NNE,32,4.0,10.0,81,0.00,,---,0.02,VWS V14.01,2013-04-24 14:25:00,
2013-04-24 09:30:00,35.3,30.1,30.27,NNW,327,2.0,2.0,81,0.00,,---,0.02,VWS V14.01,2013-04-24 14:30:00,
2013-04-24 09:35:00,35.9,30.6,30.27,North,5,0.0,7.0,81,0.00,,---,0.02,VWS V14.01,2013-04-24 14:35:00,
2013-04-24 09:40:00,36.2,30.9,30.27,North,5,4.0,9.0,81,0.00,,---,0.02,VWS V14.01,2013-04-24 14:40:00,
2013-04-24 09:45:00,36.2,30.6,30.27,North,360,2.0,9.0,80,0.00,,---,0.02,VWS V14.01,2013-04-24 14:45:00,
2013-04-24 09:50:00,36.0,30.1,30.27,NNW,340,0.0,9.0,79,0.00,,---,0.02,VWS V14.01,2013-04-24 14:50:00,
2013-04-24 09:55:00,36.6,30.7,30.27,NNW,328,4.0,9.0,79,0.00,,---,0.02,VWS V14.01,2013-04-24 14:55:00,
2013-04-24 10:00:00,37.0,31.1,30.27,NNW,331,0.0,0.0,79,0.00,,---,0.02,VWS V14.01,2013-04-24 15:00:00,
2013-04-24 10:05:00,37.3,31.4,30.27,NNE,23,5.0,7.0,79,0.00,,---,0.02,VWS V14.01,2013-04-24 15:05:00,
2013-04-24 10:10:00,37.5,31.3,30.27,NW,309,2.0,9.0,78,0.00,,---,0.02,VWS V14.01,2013-04-24 15:10:00,
2013-04-24 10:15:00,37.6,31.4,30.27,NNE,15,2.0,11.0,78,0.00,,---,0.02,VWS V14.01,2013-04-24 15:15:00,
2013-04-24 10:20:00,37.6,31.1,30.27,NW,326,6.0,11.0,77,0.00,,---,0.02,VWS V14.01,2013-04-24 15:20:00,
2013-04-24 10:25:00,37.9,31.7,30.27,NNE,29,2.0,11.0,78,0.00,,---,0.02,VWS V14.01,2013-04-24 15:25:00,
2013-04-24 10:30:00,38.2,31.6,30.27,NW,326,2.0,11.0,77,0.00,,---,0.02,VWS V14.01,2013-04-24 15:30:00,
2013-04-24 10:35:00,38.8,31.9,30.27,NW,325,5.0,10.0,76,0.00,,---,0.02,VWS V14.01,2013-04-24 15:35:00,
2013-04-24 10:40:00,39.1,32.2,30.27,NE,38,6.0,10.0,76,0.00,,---,0.02,VWS V14.01,2013-04-24 15:40:00,
2013-04-24 10:45:00,39.1,31.9,30.26,North,355,6.0,14.0,75,0.01,,---,0.03,VWS V14.01,2013-04-24 15:45:00,
2013-04-24 10:50:00,39.1,31.5,30.26,NW,325,6.0,14.0,74,0.01,,---,0.03,VWS V14.01,2013-04-24 15:50:00,
2013-04-24 10:55:00,39.1,31.5,30.26,NW,313,1.0,14.0,74,0.01,,---,0.03,VWS V14.01,2013-04-24 15:55:00,
2013-04-24 11:00:00,39.1,31.5,30.27,NNE,24,8.0,14.0,74,0.01,,---,0.03,VWS V14.01,2013-04-24 16:00:00,
2013-04-24 11:05:00,39.3,31.7,30.27,NNW,346,7.0,9.0,74,0.01,,---,0.03,VWS V14.01,2013-04-24 16:05:00,
2013-04-24 11:10:00,39.6,31.7,30.27,NNW,334,4.0,9.0,73,0.01,,---,0.03,VWS V14.01,2013-04-24 16:10:00,
2013-04-24 11:15:00,40.2,32.6,30.28,South,182,3.0,9.0,74,0.01,,---,0.03,VWS V14.01,2013-04-24 16:15:00,
2013-04-24 11:20:00,40.5,32.2,30.28,WSW,243,1.0,9.0,72,0.01,,---,0.03,VWS V14.01,2013-04-24 16:20:00,
2013-04-24 11:25:00,40.8,32.5,30.28,NNW,331,0.0,9.0,72,0.01,,---,0.03,VWS V14.01,2013-04-24 16:25:00,
2013-04-24 11:30:00,40.8,32.5,30.28,NW,323,0.0,9.0,72,0.01,,---,0.03,VWS V14.01,2013-04-24 16:30:00,
2013-04-24 11:35:00,41.1,32.8,30.28,NNW,338,1.0,4.0,72,0.01,,---,0.03,VWS V14.01,2013-04-24 16:35:00,
2013-04-24 11:40:00,41.1,32.1,30.28,WSW,243,2.0,8.0,70,0.01,,---,0.03,VWS V14.01,2013-04-24 16:40:00,
2013-04-24 11:45:00,41.6,32.9,30.28,NNW,336,4.0,9.0,71,0.01,,---,0.03,VWS V14.01,2013-04-24 16:45:00,
2013-04-24 11:50:00,41.9,32.8,30.28,SW,232,1.0,9.0,70,0.01,,---,0.03,VWS V14.01,2013-04-24 16:50:00,
2013-04-24 11:55:00,42.2,33.1,30.28,West,265,3.0,9.0,70,0.01,,---,0.03,VWS V14.01,2013-04-24 16:55:00,
2013-04-24 12:00:00,42.1,32.7,30.28,WSW,239,6.0,9.0,69,0.01,,---,0.03,VWS V14.01,2013-04-24 17:00:00,
2013-04-24 12:05:00,42.1,32.7,30.28,West,259,1.0,6.0,69,0.00,,---,0.03,VWS V14.01,2013-04-24 17:05:00,
2013-04-24 12:10:00,42.5,33.1,30.28,NNW,342,1.0,7.0,69,0.00,,---,0.03,VWS V14.01,2013-04-24 17:10:00,
2013-04-24 12:15:00,42.9,33.1,30.27,WSW,239,0.0,7.0,68,0.00,,---,0.03,VWS V14.01,2013-04-24 17:15:00,
2013-04-24 12:20:00,43.1,33.3,30.27,South,177,2.0,7.0,68,0.00,,---,0.03,VWS V14.01,2013-04-24 17:20:00,
2013-04-24 12:25:00,43.1,33.3,30.27,WSW,251,0.0,7.0,68,0.00,,---,0.03,VWS V14.01,2013-04-24 17:25:00,
2013-04-24 12:30:00,43.3,33.5,30.27,North,355,1.0,7.0,68,0.00,,---,0.03,VWS V14.01,2013-04-24 17:30:00,
2013-04-24 12:35:00,43.5,33.7,30.27,West,268,1.0,7.0,68,0.00,,---,0.03,VWS V14.01,2013-04-24 17:35:00,
2013-04-24 12:40:00,43.8,33.6,30.27,WSW,245,3.0,8.0,67,0.00,,---,0.03,VWS V14.01,2013-04-24 17:40:00,
2013-04-24 12:45:00,43.6,33.4,30.27,WSW,250,2.0,8.0,67,0.00,,---,0.03,VWS V14.01,2013-04-24 17:45:00,
2013-04-24 12:50:00,43.9,33.3,30.27,West,265,1.0,10.0,66,0.00,,---,0.03,VWS V14.01,2013-04-24 17:50:00,
2013-04-24 12:55:00,44.3,34.0,30.27,SW,232,2.0,10.0,67,0.00,,---,0.03,VWS V14.01,2013-04-24 17:55:00,
2013-04-24 13:00:00,44.3,34.0,30.26,SW,236,5.0,10.0,67,0.00,,---,0.03,VWS V14.01,2013-04-24 18:00:00,
2013-04-24 13:05:00,44.3,33.7,30.26,WSW,241,4.0,9.0,66,0.00,,---,0.03,VWS V14.01,2013-04-24 18:05:00,
2013-04-24 13:10:00,44.2,33.6,30.26,WSW,255,0.0,10.0,66,0.00,,---,0.03,VWS V14.01,2013-04-24 18:10:00,
2013-04-24 13:15:00,44.6,34.0,30.26,NW,320,3.0,10.0,66,0.00,,---,0.03,VWS V14.01,2013-04-24 18:15:00,
2013-04-24 13:20:00,44.8,34.2,30.26,WNW,291,4.0,10.0,66,0.00,,---,0.03,VWS V14.01,2013-04-24 18:20:00,
2013-04-24 13:25:00,45.1,34.0,30.26,NNW,328,1.0,10.0,65,0.00,,---,0.03,VWS V14.01,2013-04-24 18:25:00,
2013-04-24 13:30:00,45.5,34.4,30.25,NNW,336,2.0,10.0,65,0.00,,---,0.03,VWS V14.01,2013-04-24 18:30:00,
2013-04-24 13:35:00,45.7,34.2,30.25,NNW,333,0.0,6.0,64,0.00,,---,0.03,VWS V14.01,2013-04-24 18:35:00,
2013-04-24 13:40:00,46.2,34.7,30.25,WSW,245,0.0,8.0,64,0.00,,---,0.03,VWS V14.01,2013-04-24 18:40:00,
2013-04-24 13:45:00,46.0,34.5,30.26,WSW,248,0.0,9.0,64,0.00,,---,0.03,VWS V14.01,2013-04-24 18:45:00,
2013-04-24 13:50:00,46.2,34.7,30.26,NNW,347,1.0,9.0,64,0.00,,---,0.03,VWS V14.01,2013-04-24 18:50:00,
2013-04-24 13:55:00,46.7,34.8,30.26,SW,215,6.0,10.0,63,0.00,,---,0.03,VWS V14.01,2013-04-24 18:55:00,
2013-04-24 14:00:00,46.8,34.5,30.27,SSE,163,2.0,10.0,62,0.00,,---,0.03,VWS V14.01,2013-04-24 19:00:00,
2013-04-24 14:05:00,47.3,35.4,30.27,West,263,5.0,9.0,63,0.00,,---,0.03,VWS V14.01,2013-04-24 19:05:00,
2013-04-24 14:10:00,47.3,35.0,30.27,WSW,249,6.0,9.0,62,0.00,,---,0.03,VWS V14.01,2013-04-24 19:10:00,
2013-04-24 14:15:00,47.3,34.5,30.27,WSW,241,2.0,11.0,61,0.00,,---,0.03,VWS V14.01,2013-04-24 19:15:00,
2013-04-24 14:20:00,47.4,34.6,30.27,West,263,7.0,11.0,61,0.00,,---,0.03,VWS V14.01,2013-04-24 19:20:00,
2013-04-24 14:25:00,47.7,34.5,30.27,West,267,5.0,11.0,60,0.00,,---,0.03,VWS V14.01,2013-04-24 19:25:00,
2013-04-24 14:30:00,48.2,35.0,30.26,SW,217,6.0,11.0,60,0.00,,---,0.03,VWS V14.01,2013-04-24 19:30:00,
2013-04-24 14:35:00,48.3,34.7,30.26,West,273,6.0,10.0,59,0.00,,---,0.03,VWS V14.01,2013-04-24 19:35:00,
2013-04-24 14:40:00,48.6,34.9,30.26,West,271,6.0,10.0,59,0.00,,---,0.03,VWS V14.01,2013-04-24 19:40:00,
2013-04-24 14:45:00,48.5,34.8,30.26,WSW,243,7.0,12.0,59,0.00,,---,0.03,VWS V14.01,2013-04-24 19:45:00,
2013-04-24 14:50:00,48.8,35.1,30.26,WSW,248,4.0,12.0,59,0.00,,---,0.03,VWS V14.01,2013-04-24 19:50:00,
2013-04-24 14:55:00,48.9,35.2,30.26,WSW,248,4.0,12.0,59,0.00,,---,0.03,VWS V14.01,2013-04-24 19:55:00,
2013-04-24 15:00:00,49.2,35.1,30.26,SW,235,5.0,12.0,58,0.00,,---,0.03,VWS V14.01,2013-04-24 20:00:00,
2013-04-24 15:05:00,49.4,35.3,30.26,WSW,248,3.0,10.0,58,0.00,,---,0.03,VWS V14.01,2013-04-24 20:05:00,
2013-04-24 15:10:00,49.6,35.5,30.26,West,271,6.0,10.0,58,0.00,,---,0.03,VWS V14.01,2013-04-24 20:10:00,
2013-04-24 15:15:00,49.8,35.2,30.26,West,265,6.0,12.0,57,0.00,,---,0.03,VWS V14.01,2013-04-24 20:15:00,
2013-04-24 15:20:00,49.6,34.6,30.26,WSW,252,4.0,12.0,56,0.00,,---,0.03,VWS V14.01,2013-04-24 20:20:00,
2013-04-24 15:25:00,49.9,35.3,30.26,West,262,4.0,12.0,57,0.00,,---,0.03,VWS V14.01,2013-04-24 20:25:00,
2013-04-24 15:30:00,50.2,35.1,30.25,West,260,5.0,12.0,56,0.00,,---,0.03,VWS V14.01,2013-04-24 20:30:00,
2013-04-24 15:35:00,50.1,34.6,30.25,WSW,247,4.0,11.0,55,0.00,,---,0.03,VWS V14.01,2013-04-24 20:35:00,
2013-04-24 15:40:00,50.8,35.7,30.25,West,259,4.0,11.0,56,0.00,,---,0.03,VWS V14.01,2013-04-24 20:40:00,
2013-04-24 15:45:00,51.0,35.4,30.24,SSW,192,6.0,11.0,55,0.00,,---,0.03,VWS V14.01,2013-04-24 20:45:00,
2013-04-24 15:50:00,51.1,35.5,30.24,SW,225,2.0,11.0,55,0.00,,---,0.03,VWS V14.01,2013-04-24 20:50:00,
2013-04-24 15:55:00,51.1,35.0,30.24,West,261,4.0,11.0,54,0.00,,---,0.03,VWS V14.01,2013-04-24 20:55:00,
2013-04-24 16:00:00,51.4,35.3,30.23,WNW,289,6.0,11.0,54,0.00,,---,0.03,VWS V14.01,2013-04-24 21:00:00,
2013-04-24 16:05:00,51.4,35.3,30.23,SW,234,5.0,9.0,54,0.00,,---,0.03,VWS V14.01,2013-04-24 21:05:00,
2013-04-24 16:10:00,51.6,35.5,30.23,WSW,254,5.0,9.0,54,0.00,,---,0.03,VWS V14.01,2013-04-24 21:10:00,
2013-04-24 16:15:00,51.9,35.8,30.23,WSW,244,4.0,10.0,54,0.00,,---,0.03,VWS V14.01,2013-04-24 21:15:00,
2013-04-24 16:20:00,51.9,35.3,30.23,SW,215,2.0,10.0,53,0.00,,---,0.03,VWS V14.01,2013-04-24 21:20:00,
2013-04-24 16:25:00,51.9,35.3,30.23,West,263,6.0,10.0,53,0.00,,---,0.03,VWS V14.01,2013-04-24 21:25:00,
2013-04-24 16:30:00,52.2,35.6,30.23,West,265,2.0,10.0,53,0.00,,---,0.03,VWS V14.01,2013-04-24 21:30:00,
2013-04-24 16:35:00,52.3,34.7,30.23,WSW,254,3.0,13.0,51,0.00,,---,0.03,VWS V14.01,2013-04-24 21:35:00,
2013-04-24 16:40:00,52.5,35.4,30.23,SW,228,4.0,13.0,52,0.00,,---,0.03,VWS V14.01,2013-04-24 21:40:00,
2013-04-24 16:45:00,52.5,34.9,30.22,WSW,257,4.0,13.0,51,0.00,,---,0.03,VWS V14.01,2013-04-24 21:45:00,
2013-04-24 16:50:00,52.6,35.0,30.22,WSW,253,4.0,13.0,51,0.00,,---,0.03,VWS V14.01,2013-04-24 21:50:00,
2013-04-24 16:55:00,52.5,34.9,30.22,SW,227,4.0,13.0,51,0.00,,---,0.03,VWS V14.01,2013-04-24 21:55:00,
2013-04-24 17:00:00,52.6,35.0,30.21,West,269,7.0,13.0,51,0.00,,---,0.03,VWS V14.01,2013-04-24 22:00:00,
2013-04-24 17:05:00,52.3,34.2,30.21,West,261,3.0,9.0,50,0.00,,---,0.03,VWS V14.01,2013-04-24 22:05:00,
2013-04-24 17:10:00,52.3,33.7,30.21,WSW,254,5.0,10.0,49,0.00,,---,0.03,VWS V14.01,2013-04-24 22:10:00,
2013-04-24 17:15:00,52.5,34.4,30.21,WSW,254,1.0,10.0,50,0.00,,---,0.03,VWS V14.01,2013-04-24 22:15:00,
2013-04-24 17:20:00,52.6,34.5,30.21,West,265,5.0,11.0,50,0.00,,---,0.03,VWS V14.01,2013-04-24 22:20:00,
2013-04-24 17:25:00,52.5,33.9,30.21,SSW,213,6.0,11.0,49,0.00,,---,0.03,VWS V14.01,2013-04-24 22:25:00,
2013-04-24 17:30:00,52.3,33.7,30.21,WSW,238,1.0,11.0,49,0.00,,---,0.03,VWS V14.01,2013-04-24 22:30:00,
2013-04-24 17:35:00,52.2,33.6,30.21,West,276,5.0,11.0,49,0.00,,---,0.03,VWS V14.01,2013-04-24 22:35:00,
2013-04-24 17:40:00,51.9,33.4,30.21,North,360,4.0,11.0,49,0.00,,---,0.03,VWS V14.01,2013-04-24 22:40:00,
2013-04-24 17:45:00,51.9,33.4,30.21,WSW,247,5.0,11.0,49,0.00,,---,0.03,VWS V14.01,2013-04-24 22:45:00,
2013-04-24 17:50:00,52.0,33.5,30.21,WSW,255,6.0,11.0,49,0.00,,---,0.03,VWS V14.01,2013-04-24 22:50:00,
2013-04-24 17:55:00,52.2,33.6,30.21,SW,232,4.0,11.0,49,0.00,,---,0.03,VWS V14.01,2013-04-24 22:55:00,
2013-04-24 18:00:00,52.2,33.1,30.21,WSW,237,5.0,11.0,48,0.00,,---,0.03,VWS V14.01,2013-04-24 23:00:00,
2013-04-24 18:05:00,52.2,33.6,30.21,WSW,245,4.0,7.0,49,0.00,,---,0.03,VWS V14.01,2013-04-24 23:05:00,
2013-04-24 18:10:00,52.2,33.6,30.21,SW,236,3.0,7.0,49,0.00,,---,0.03,VWS V14.01,2013-04-24 23:10:00,
2013-04-24 18:15:00,52.0,33.5,30.21,South,181,3.0,7.0,49,0.00,,---,0.03,VWS V14.01,2013-04-24 23:15:00,
2013-04-24 18:20:00,52.0,33.5,30.21,South,189,3.0,8.0,49,0.00,,---,0.03,VWS V14.01,2013-04-24 23:20:00,
2013-04-24 18:25:00,52.0,32.9,30.21,WSW,241,3.0,8.0,48,0.00,,---,0.03,VWS V14.01,2013-04-24 23:25:00,
2013-04-24 18:30:00,52.3,33.2,30.20,WSW,257,5.0,8.0,48,0.00,,---,0.03,VWS V14.01,2013-04-24 23:30:00,
2013-04-24 18:35:00,52.8,33.7,30.20,WSW,248,5.0,7.0,48,0.00,,---,0.03,VWS V14.01,2013-04-24 23:35:00,
2013-04-24 18:40:00,53.1,33.4,30.20,WSW,248,2.0,9.0,47,0.00,,---,0.03,VWS V14.01,2013-04-24 23:40:00,
2013-04-24 18:45:00,53.2,33.5,30.19,West,270,3.0,9.0,47,0.00,,---,0.03,VWS V14.01,2013-04-24 23:45:00,
2013-04-24 18:50:00,53.2,33.5,30.19,SW,222,0.0,9.0,47,0.00,,---,0.03,VWS V14.01,2013-04-24 23:50:00,
2013-04-24 18:55:00,52.9,33.2,30.19,WNW,297,5.0,10.0,47,0.00,,---,0.03,VWS V14.01,2013-04-24 23:55:00,
2013-04-24 19:00:00,52.8,33.2,30.19,SW,223,3.0,10.0,47,0.00,,---,0.03,VWS V14.01,2013-04-25 00:00:00,
2013-04-24 19:05:00,52.5,32.3,30.19,WSW,254,4.0,8.0,46,0.00,,---,0.03,VWS V14.01,2013-04-25 00:05:00,
2013-04-24 19:10:00,52.3,32.2,30.19,SW,228,1.0,8.0,46,0.00,,---,0.03,VWS V14.01,2013-04-25 00:10:00,
2013-04-24 19:15:00,52.2,32.6,30.19,WSW,253,4.0,8.0,47,0.00,,---,0.03,VWS V14.01,2013-04-25 00:15:00,
2013-04-24 19:20:00,52.0,32.4,30.19,SW,232,3.0,8.0,47,0.00,,---,0.03,VWS V14.01,2013-04-25 00:20:00,
2013-04-24 19:25:00,51.9,32.3,30.19,SW,227,2.0,8.0,47,0.00,,---,0.03,VWS V14.01,2013-04-25 00:25:00,
2013-04-24 19:30:00,51.7,32.7,30.19,SSW,204,4.0,8.0,48,0.00,,---,0.03,VWS V14.01,2013-04-25 00:30:00,
2013-04-24 19:35:00,51.6,32.6,30.19,West,265,1.0,7.0,48,0.00,,---,0.03,VWS V14.01,2013-04-25 00:35:00,
2013-04-24 19:40:00,51.1,32.1,30.19,SW,225,1.0,7.0,48,0.00,,---,0.03,VWS V14.01,2013-04-25 00:40:00,
2013-04-24 19:45:00,50.8,31.8,30.19,SSW,207,1.0,7.0,48,0.00,,---,0.03,VWS V14.01,2013-04-25 00:45:00,
2013-04-24 19:50:00,50.5,32.1,30.19,WSW,254,2.0,7.0,49,0.00,,---,0.03,VWS V14.01,2013-04-25 00:50:00,
2013-04-24 19:55:00,50.1,31.7,30.19,WSW,244,2.0,7.0,49,0.00,,---,0.03,VWS V14.01,2013-04-25 00:55:00,
2013-04-24 20:00:00,49.8,31.4,30.20,SW,236,1.0,7.0,49,0.00,,---,0.03,VWS V14.01,2013-04-25 01:00:00,
2013-04-24 20:05:00,49.4,31.6,30.20,WSW,258,1.0,3.0,50,0.00,,---,0.03,VWS V14.01,2013-04-25 01:05:00,
2013-04-24 20:10:00,49.1,31.3,30.20,WSW,243,1.0,3.0,50,0.00,,---,0.03,VWS V14.01,2013-04-25 01:10:00,
2013-04-24 20:15:00,48.6,31.3,30.21,SW,236,2.0,3.0,51,0.00,,---,0.03,VWS V14.01,2013-04-25 01:15:00,
2013-04-24 20:20:00,48.3,31.0,30.21,WSW,252,2.0,3.0,51,0.00,,---,0.03,VWS V14.01,2013-04-25 01:20:00,
2013-04-24 20:25:00,48.0,31.2,30.21,WSW,254,3.0,3.0,52,0.00,,---,0.03,VWS V14.01,2013-04-25 01:25:00,
2013-04-24 20:30:00,47.9,31.1,30.21,West,261,1.0,3.0,52,0.00,,---,0.03,VWS V14.01,2013-04-25 01:30:00,
2013-04-24 20:35:00,47.6,31.3,30.21,West,261,1.0,3.0,53,0.00,,---,0.03,VWS V14.01,2013-04-25 01:35:00,
2013-04-24 20:40:00,47.4,31.1,30.21,West,273,2.0,3.0,53,0.00,,---,0.03,VWS V14.01,2013-04-25 01:40:00,
2013-04-24 20:45:00,47.1,31.3,30.21,West,274,1.0,3.0,54,0.00,,---,0.03,VWS V14.01,2013-04-25 01:45:00,
2013-04-24 20:50:00,47.0,31.2,30.21,West,265,1.0,3.0,54,0.00,,---,0.03,VWS V14.01,2013-04-25 01:50:00,
2013-04-24 20:55:00,46.8,31.0,30.21,WSW,256,1.0,3.0,54,0.00,,---,0.03,VWS V14.01,2013-04-25 01:55:00,
2013-04-24 21:00:00,46.7,31.0,30.21,WSW,249,2.0,3.0,54,0.00,,---,0.03,VWS V14.01,2013-04-25 02:00:00,
2013-04-24 21:05:00,46.5,31.2,30.21,West,268,3.0,3.0,55,0.00,,---,0.03,VWS V14.01,2013-04-25 02:05:00,
2013-04-24 21:10:00,46.5,31.2,30.21,WSW,244,1.0,4.0,55,0.00,,---,0.03,VWS V14.01,2013-04-25 02:10:00,
2013-04-24 21:15:00,46.4,31.1,30.21,WSW,251,0.0,4.0,55,0.00,,---,0.03,VWS V14.01,2013-04-25 02:15:00,
2013-04-24 21:20:00,46.2,31.4,30.21,WSW,254,1.0,4.0,56,0.00,,---,0.03,VWS V14.01,2013-04-25 02:20:00,
2013-04-24 21:25:00,46.1,31.3,30.21,West,259,0.0,4.0,56,0.00,,---,0.03,VWS V14.01,2013-04-25 02:25:00,
2013-04-24 21:30:00,46.0,31.2,30.22,WSW,258,1.0,4.0,56,0.00,,---,0.03,VWS V14.01,2013-04-25 02:30:00,
2013-04-24 21:35:00,45.8,31.0,30.22,West,259,1.0,2.0,56,0.00,,---,0.03,VWS V14.01,2013-04-25 02:35:00,
2013-04-24 21:40:00,45.7,30.9,30.22,West,259,1.0,3.0,56,0.00,,---,0.03,VWS V14.01,2013-04-25 02:40:00,
2013-04-24 21:45:00,45.5,30.7,30.22,West,259,1.0,3.0,56,0.00,,---,0.03,VWS V14.01,2013-04-25 02:45:00,
2013-04-24 21:50:00,45.4,31.1,30.22,West,259,1.0,3.0,57,0.00,,---,0.03,VWS V14.01,2013-04-25 02:50:00,
2013-04-24 21:55:00,45.2,30.9,30.22,West,259,0.0,3.0,57,0.00,,---,0.03,VWS V14.01,2013-04-25 02:55:00,
2013-04-24 22:00:00,45.1,30.8,30.22,West,259,1.0,3.0,57,0.00,,---,0.03,VWS V14.01,2013-04-25 03:00:00,
2013-04-24 22:05:00,45.1,30.8,30.22,West,259,2.0,3.0,57,0.00,,---,0.03,VWS V14.01,2013-04-25 03:05:00,
2013-04-24 22:10:00,44.8,30.5,30.22,West,259,0.0,3.0,57,0.00,,---,0.03,VWS V14.01,2013-04-25 03:10:00,
2013-04-24 22:15:00,44.5,30.7,30.22,West,259,0.0,3.0,58,0.00,,---,0.03,VWS V14.01,2013-04-25 03:15:00,
2013-04-24 22:20:00,44.3,30.5,30.22,West,268,3.0,3.0,58,0.00,,---,0.03,VWS V14.01,2013-04-25 03:20:00,
2013-04-24 22:24:00,44.5,30.7,30.22,West,275,2.0,4.0,58,0.00,,---,0.03,VWS V14.01,2013-04-25 03:24:00,
2013-04-24 22:29:00,44.5,30.7,30.22,West,273,1.0,4.0,58,0.00,,---,0.03,VWS V14.01,2013-04-25 03:29:00,
2013-04-24 22:30:00,46.0,31.2,30.22,West,259,1.0,4.0,56,0.00,,---,0.03,VWS V14.01,2013-04-25 03:30:00,
2013-04-24 22:34:00,44.5,30.7,30.22,West,270,2.0,3.0,58,0.00,,---,0.03,VWS V14.01,2013-04-25 03:34:00,
2013-04-24 22:39:00,44.5,31.1,30.22,WSW,255,1.0,4.0,59,0.00,,---,0.03,VWS V14.01,2013-04-25 03:39:00,
2013-04-24 22:44:00,44.6,31.2,30.23,South,188,1.0,5.0,59,0.00,,---,0.03,VWS V14.01,2013-04-25 03:44:00,
2013-04-24 22:49:00,44.6,31.2,30.23,West,265,3.0,5.0,59,0.00,,---,0.03,VWS V14.01,2013-04-25 03:49:00,
2013-04-24 22:54:00,44.8,31.4,30.23,WSW,253,4.0,5.0,59,0.00,,---,0.03,VWS V14.01,2013-04-25 03:54:00,
2013-04-24 22:59:00,44.9,31.5,30.24,WSW,246,3.0,6.0,59,0.00,,---,0.03,VWS V14.01,2013-04-25 03:59:00,
2013-04-24 23:00:00,45.1,30.8,30.22,West,259,2.0,3.0,57,0.00,,---,0.03,VWS V14.01,2013-04-25 04:00:00,
2013-04-24 23:01:00,44.9,31.5,30.24,WSW,253,2.0,3.0,59,0.00,,---,0.03,VWS V14.01,2013-04-25 04:01:00,
2013-04-24 23:06:00,44.9,31.5,30.24,West,271,3.0,5.0,59,0.00,,---,0.03,VWS V14.01,2013-04-25 04:06:00,
2013-04-24 23:11:00,44.8,31.4,30.24,West,278,3.0,5.0,59,0.00,,---,0.03,VWS V14.01,2013-04-25 04:11:00,
2013-04-24 23:16:00,44.5,31.1,30.24,West,265,1.0,5.0,59,0.00,,---,0.03,VWS V14.01,2013-04-25 04:16:00,
2013-04-24 23:21:00,44.3,30.9,30.24,SSW,204,0.0,5.0,59,0.00,,---,0.03,VWS V14.01,2013-04-25 04:21:00,
2013-04-24 23:26:00,44.2,30.8,30.24,West,268,1.0,5.0,59,0.00,,---,0.03,VWS V14.01,2013-04-25 04:26:00,
2013-04-24 23:30:00,44.5,30.7,30.22,West,267,2.0,4.0,58,0.00,,---,0.03,VWS V14.01,2013-04-25 04:30:00,
2013-04-24 23:31:00,44.1,31.1,30.24,West,268,3.0,4.0,60,0.00,,---,0.03,VWS V14.01,2013-04-25 04:31:00,
2013-04-24 23:36:00,43.9,30.9,30.24,West,267,2.0,5.0,60,0.00,,---,0.03,VWS V14.01,2013-04-25 04:36:00,
2013-04-24 23:41:00,43.8,30.8,30.24,WSW,250,2.0,5.0,60,0.00,,---,0.03,VWS V14.01,2013-04-25 04:41:00,
2013-04-24 23:46:00,43.6,30.6,30.24,WNW,288,2.0,5.0,60,0.00,,---,0.03,VWS V14.01,2013-04-25 04:46:00,
2013-04-24 23:51:00,43.5,30.5,30.24,WSW,247,2.0,5.0,60,0.00,,---,0.03,VWS V14.01,2013-04-25 04:51:00,
2013-04-24 23:56:00,43.3,30.8,30.24,WSW,247,0.0,5.0,61,0.00,,---,0.03,VWS V14.01,2013-04-25 04:56:00,